Location: Shepherdstown, WV
(39.4326°N, 77.8042°W)
Time: 03:13:49
(UTC-04:00)

Vanguard 1 - Pass Details

Date: 02 October 2021
Orbit: 653 x 3829 km, 34.2° (Epoch: 18 October)

Event Time Altitude Azimuth Distance (km) Brightness Sun altitude
Rises 19:06:16 0° 249° (WSW) 4,847 15.3 -3.7°
Reaches altitude 10° 19:08:53 10° 246° (WSW) 4,172 14.6 -4.2°
Maximum altitude 19:21:00 69° 166° (SSE) 2,853 12.4 -6.5°
Enters shadow 19:41:30 11° 89° (E) 6,666 13.6 -10.5°
